| time (UTC) | temp C | wind direction | speed KPH | gust KPH | rain 1hr cm | rain 24hr cm | rain mn cm | humidity % | barometer mb |
| 20260506080143 | 13 | 267 | 0.0 | 3.2 | 0.00 | 0.23 | 0.00 | 58 | 1018.4 |
| 20260506073211 | 15 | 267 | 0.0 | 0.0 | 0.00 | 0.36 | 0.00 | 54 | 1018.6 |
| 20260506071649 | 15 | 267 | 0.0 | 3.2 | 0.00 | 0.36 | 0.00 | 53 | 1018.6 |
| 20260506070155 | 16 | 267 | 1.6 | 4.8 | 0.00 | 0.36 | 0.00 | 50 | 1018.2 |
| 20260506061646 | 16 | 290 | 3.2 | 11.3 | 0.00 | 0.46 | 0.36 | 48 | 1018.1 |
| 20260506060218 | 16 | 280 | 4.8 | 8.0 | 0.00 | 0.46 | 0.36 | 47 | 1018.0 |
| 20260506050149 | 17 | 297 | 3.2 | 16.1 | 0.00 | 0.51 | 0.36 | 43 | 1017.7 |
| 20260506044654 | 17 | 265 | 6.4 | 16.1 | 0.00 | 0.53 | 0.36 | 43 | 1017.3 |
| 20260506043148 | 18 | 291 | 4.8 | 14.5 | 0.00 | 0.53 | 0.36 | 42 | 1017.3 |
| 20260506041700 | 18 | 258 | 6.4 | 16.1 | 0.00 | 0.53 | 0.36 | 40 | 1017.0 |
| 20260506040205 | 18 | 233 | 4.8 | 17.7 | 0.00 | 0.53 | 0.36 | 38 | 1017.0 |
| 20260506034537 | 18 | 254 | 11.3 | 16.1 | 0.00 | 0.53 | 0.36 | 33 | 1016.8 |
| 20260506033039 | 18 | 265 | 4.8 | 9.7 | 0.00 | 0.53 | 0.36 | 31 | 1016.6 |
| 20260506031716 | 19 | 273 | 3.2 | 14.5 | 0.00 | 0.53 | 0.36 | 30 | 1016.2 |
| 20260506030153 | 19 | 267 | 6.4 | 11.3 | 0.00 | 0.53 | 0.36 | 29 | 1016.1 |
| 20260506024659 | 20 | 291 | 11.3 | 14.5 | 0.00 | 0.69 | 0.36 | 28 | 1015.7 |
| 20260506023218 | 20 | 266 | 8.0 | 16.1 | 0.00 | 0.69 | 0.36 | 28 | 1015.6 |
| 20260506021653 | 20 | 264 | 6.4 | 19.3 | 0.00 | 0.69 | 0.36 | 28 | 1015.2 |
| 20260506020156 | 20 | 287 | 11.3 | 19.3 | 0.00 | 0.69 | 0.36 | 29 | 1015.0 |
| 20260506014656 | 21 | 274 | 9.7 | 20.9 | 0.00 | 0.74 | 0.36 | 28 | 1015.0 |
| 20260506013156 | 21 | 288 | 14.5 | 24.1 | 0.00 | 0.74 | 0.36 | 27 | 1014.8 |
| 20260506011650 | 22 | 281 | 17.7 | 22.5 | 0.00 | 0.74 | 0.36 | 24 | 1014.9 |
| 20260506010147 | 22 | 270 | 3.2 | 25.7 | 0.00 | 0.74 | 0.36 | 24 | 1014.6 |
| 20260506004644 | 23 | 257 | 12.9 | 27.4 | 0.00 | 0.79 | 0.36 | 24 | 1014.5 |
| 20260506003148 | 23 | 266 | 14.5 | 29.0 | 0.00 | 0.79 | 0.36 | 24 | 1014.2 |
| 20260506001643 | 23 | 253 | 11.3 | 27.4 | 0.00 | 0.79 | 0.36 | 24 | 1014.2 |
| 20260506000209 | 23 | 276 | 12.9 | 22.5 | 0.00 | 0.79 | 0.36 | 24 | 1014.3 |
| 20260505234647 | 23 | 253 | 11.3 | 22.5 | 0.00 | 0.79 | 0.36 | 25 | 1014.0 |
| 20260505233159 | 24 | 200 | 11.3 | 24.1 | 0.00 | 0.79 | 0.36 | 24 | 1013.9 |
| 20260505231646 | 24 | 229 | 9.7 | 24.1 | 0.00 | 0.79 | 0.36 | 24 | 1013.9 |
| 20260505230144 | 24 | 242 | 14.5 | 22.5 | 0.00 | 0.79 | 0.36 | 24 | 1013.9 |
| 20260505224719 | 24 | 211 | 12.9 | 25.7 | 0.00 | 0.79 | 0.36 | 24 | 1014.1 |
| 20260505223158 | 24 | 241 | 16.1 | 30.6 | 0.00 | 0.79 | 0.36 | 24 | 1014.1 |
| 20260505221720 | 24 | 242 | 12.9 | 25.7 | 0.00 | 0.79 | 0.36 | 24 | 1014.3 |
| 20260505220142 | 24 | 279 | 12.9 | 33.8 | 0.00 | 0.79 | 0.36 | 26 | 1014.4 |
| 20260505214701 | 24 | 255 | 11.3 | 33.8 | 0.00 | 0.79 | 0.36 | 27 | 1014.7 |
| 20260505213211 | 24 | 243 | 14.5 | 37.0 | 0.00 | 0.79 | 0.36 | 27 | 1014.8 |
| 20260505211648 | 23 | 275 | 17.7 | 33.8 | 0.00 | 0.79 | 0.36 | 28 | 1014.7 |
| 20260505210153 | 23 | 265 | 24.1 | 33.8 | 0.00 | 0.79 | 0.36 | 30 | 1014.7 |
| 20260505204655 | 23 | 269 | 22.5 | 33.8 | 0.00 | 0.79 | 0.36 | 31 | 1014.8 |
| 20260505203153 | 23 | 240 | 11.3 | 38.6 | 0.00 | 0.79 | 0.36 | 33 | 1014.8 |
| 20260505201657 | 23 | 243 | 8.0 | 27.4 | 0.00 | 0.79 | 0.36 | 34 | 1015.0 |
| 20260505200141 | 23 | 277 | 9.7 | 19.3 | 0.00 | 0.79 | 0.36 | 35 | 1014.9 |
| 20260505194641 | 22 | 181 | 3.2 | 16.1 | 0.00 | 0.79 | 0.36 | 43 | 1015.0 |
| 20260505193200 | 22 | 281 | 4.8 | 14.5 | 0.00 | 0.79 | 0.36 | 42 | 1015.5 |
| 20260505191641 | 23 | 186 | 0.0 | 16.1 | 0.00 | 0.79 | 0.36 | 44 | 1015.4 |
| 20260505190141 | 22 | 187 | 4.8 | 14.5 | 0.00 | 0.79 | 0.36 | 44 | 1015.5 |
| 20260505184641 | 21 | 180 | 4.8 | 14.5 | 0.00 | 0.79 | 0.36 | 47 | 1016.0 |
| 20260505183041 | 21 | 180 | 6.4 | 11.3 | 0.00 | 0.79 | 0.36 | 51 | 1016.2 |
| 20260505181643 | 21 | 180 | 4.8 | 12.9 | 0.00 | 0.79 | 0.36 | 51 | 1016.2 |
| 20260505180141 | 20 | 80 | 0.0 | 12.9 | 0.00 | 0.79 | 0.36 | 51 | 1016.3 |
| 20260505174526 | 20 | 78 | 4.8 | 11.3 | 0.00 | 0.79 | 0.36 | 53 | 1016.5 |
| 20260505173219 | 19 | 78 | 0.0 | 6.4 | 0.00 | 0.79 | 0.36 | 54 | 1016.3 |
| 20260505171655 | 18 | 78 | 0.0 | 0.0 | 0.00 | 0.79 | 0.36 | 58 | 1016.8 |
| 20260505170138 | 18 | 77 | 0.0 | 8.0 | 0.00 | 0.79 | 0.36 | 59 | 1016.6 |
| 20260505164656 | 17 | 78 | 0.0 | 1.6 | 0.00 | 0.79 | 0.36 | 60 | 1016.4 |
| 20260505163145 | 17 | 78 | 1.6 | 6.4 | 0.00 | 0.79 | 0.36 | 62 | 1016.7 |
| 20260505161652 | 17 | 78 | 0.0 | 3.2 | 0.00 | 0.79 | 0.36 | 64 | 1016.7 |
| 20260505160210 | 16 | 78 | 0.0 | 4.8 | 0.00 | 0.79 | 0.36 | 65 | 1016.6 |
| 20260505153147 | 15 | 78 | 0.0 | 4.8 | 0.00 | 0.79 | 0.36 | 71 | 1016.5 |
| 20260505151640 | 15 | 78 | 0.0 | 4.8 | 0.00 | 0.79 | 0.36 | 73 | 1016.4 |
| 20260505150147 | 15 | 78 | 3.2 | 3.2 | 0.00 | 0.79 | 0.36 | 74 | 1016.4 |
| 20260505140140 | 14 | 78 | 0.0 | 1.6 | 0.00 | 0.79 | 0.36 | 76 | 1015.9 |
| 20260505130150 | 14 | 78 | 0.0 | 3.2 | 0.03 | 0.79 | 0.36 | 77 | 1015.5 |
| 20260505124657 | 14 | 78 | 0.0 | 1.6 | 0.03 | 0.79 | 0.36 | 77 | 1015.4 |
| 20260505123143 | 14 | 78 | 0.0 | 3.2 | 0.03 | 0.79 | 0.33 | 77 | 1015.6 |
| 20260505121709 | 14 | 78 | 1.6 | 3.2 | 0.03 | 0.79 | 0.33 | 78 | 1015.3 |
| 20260505120144 | 14 | 78 | 0.0 | 0.0 | 0.00 | 0.76 | 0.33 | 78 | 1015.1 |
| 20260505114652 | 14 | 78 | 0.0 | 3.2 | 0.05 | 0.76 | 0.33 | 78 | 1015.0 |
| 20260505113146 | 14 | 78 | 0.0 | 3.2 | 0.05 | 0.76 | 0.33 | 78 | 1014.9 |
| 20260505111718 | 14 | 78 | 0.0 | 3.2 | 0.05 | 0.76 | 0.33 | 78 | 1015.5 |
| 20260505101655 | 14 | 78 | 3.2 | 4.8 | 0.05 | 0.71 | 0.28 | 79 | 1016.1 |
| 20260505100149 | 14 | 78 | 0.0 | 9.7 | 0.05 | 0.71 | 0.28 | 79 | 1016.5 |
| 20260505094640 | 14 | 78 | 8.0 | 14.5 | 0.08 | 0.71 | 0.28 | 79 | 1016.3 |
| 20260505093154 | 14 | 78 | 3.2 | 14.5 | 0.08 | 0.71 | 0.23 | 79 | 1016.5 |
| 20260505091644 | 14 | 78 | 4.8 | 14.5 | 0.05 | 0.66 | 0.23 | 80 | 1017.1 |
| 20260505090140 | 14 | 75 | 6.4 | 14.5 | 0.05 | 0.66 | 0.20 | 80 | 1016.9 |
| 20260505084637 | 14 | 73 | 6.4 | 14.5 | 0.08 | 0.64 | 0.20 | 80 | 1017.5 |
| 20260505083152 | 14 | 70 | 3.2 | 12.9 | 0.13 | 0.64 | 0.18 | 79 | 1018.2 |
| 20260505081657 | 14 | 70 | 6.4 | 11.3 | 0.13 | 0.61 | 0.18 | 79 | 1018.2 |